Frederick, MD

7:58 AM EST on November 18, 2017 (GMT -0500)
Frederick Municipal

Weather History for KFDK - August, 2014

Change the Weather History Date:

Wednesday, August 13, 2014

  Actual Average (KHGR) Record (KHGR)
Temperature  
Mean Temperature 74 °F -  
Max Temperature 80 °F 82 °F 97 °F (2016)
Min Temperature 68 °F 63 °F 52 °F (2006)
Cooling Degree Days 9    
Growing Degree Days 24 (Base 50)    
Moisture  
Dew Point 65 °F    
Average Humidity 75    
Maximum Humidity 100    
Minimum Humidity 51    
Precipitation  
Precipitation 0.00 in - - ()
Sea Level Pressure  
Sea Level Pressure 29.82 in    
Wind  
Wind Speed 3 mph (WNW)    
Max Wind Speed 15 mph    
Max Gust Speed 23 mph    
Visibility 10 miles    
Events Rain    
Averages and records for this station are not official NWS values.
T = Trace of Precipitation, MM = Missing Value Source: NWS Daily Summary

Daily Weather History Graph

Daily Weather History Graph

Search for Another Location

Airport or City:

Trip Planner

Search our weather history database for the weather conditions in past years. The results will help you decide how hot, cold, wet, or windy it might be!

Date:

Astronomy

Aug. 13, 2014 Rise Set
Actual Time 6:20 AM EDT 8:07 PM EDT
Civil Twilight 5:51 AM EDT 8:36 PM EDT
Nautical Twilight 5:16 AM EDT 9:11 PM EDT
Astronomical Twilight 4:38 AM EDT 9:48 PM EDT
Moon 9:53 PM EDT (8/13) 9:44 AM EDT (8/13)
Length of Visible Light 14h 45m
Length of Day
13h 47m
Waning Gibbous, 88% of the Moon is Illuminated
Aug 13
Waning Gibbous
Aug 17
Last Quarter
Aug 25
New
Sep 2
First Quarter
Sep 8
Full

Hourly Weather History & Observations

Time (EDT) Temp. Heat Index Dew Point Humidity Pressure Visibility Wind Dir Wind Speed Gust Speed Precip Events Conditions
12:10 AM - - - N/A% 29.81 in 10.0 mi Calm Calm - N/A   Overcast
12:50 AM - - - N/A% 29.81 in 10.0 mi Calm Calm - N/A   Overcast
1:10 AM - - - N/A% 29.80 in 10.0 mi Calm Calm - N/A   Overcast
1:30 AM - - - N/A% 29.80 in 10.0 mi Calm Calm - N/A   Overcast
1:50 AM - - - N/A% 29.79 in 10.0 mi Calm Calm - N/A   Overcast
2:10 AM - - - N/A% 29.80 in 10.0 mi Calm Calm - N/A   Overcast
2:30 AM - - - N/A% 29.80 in 10.0 mi WSW 4.6 mph - N/A   Overcast
2:50 AM - - - N/A% 29.79 in 10.0 mi WSW 4.6 mph - N/A   Mostly Cloudy
3:10 AM - - - N/A% 29.80 in 10.0 mi West 4.6 mph - N/A   Mostly Cloudy
3:30 AM - - - N/A% 29.80 in 10.0 mi SSE 3.5 mph - N/A   Overcast
3:50 AM - - - N/A% 29.79 in 10.0 mi Calm Calm - N/A   Overcast
4:10 AM - - - N/A% 29.79 in 7.0 mi Calm Calm - N/A Rain Light Rain
4:30 AM - - - N/A% 29.79 in 10.0 mi WNW 3.5 mph - N/A   Overcast
4:50 AM 71.6 °F - 69.8 °F 94% 29.80 in 10.0 mi WNW 5.8 mph - N/A   Overcast
5:10 AM 69.8 °F - 68.0 °F 94% 29.79 in 10.0 mi NNW 4.6 mph - N/A   Overcast
5:30 AM 69.8 °F - 68.0 °F 94% 29.80 in 10.0 mi Calm Calm - N/A   Mostly Cloudy
5:50 AM 69.8 °F - 68.0 °F 94% 29.80 in 10.0 mi Calm Calm - N/A   Mostly Cloudy
6:10 AM 69.8 °F - 68.0 °F 94% 29.81 in 10.0 mi Calm Calm - N/A   Overcast
6:30 AM 69.8 °F - 68.0 °F 94% 29.82 in 10.0 mi Calm Calm - N/A   Mostly Cloudy
6:35 AM 68.0 °F - 68.0 °F 100% 29.82 in 10.0 mi Calm Calm - N/A   Mostly Cloudy
6:50 AM 69.8 °F - 68.0 °F 94% 29.82 in 10.0 mi Calm Calm - N/A   Mostly Cloudy
7:45 AM 73.4 °F - 68.0 °F 83% 29.84 in 10.0 mi WNW 5.8 mph - N/A   Mostly Cloudy
11:55 AM 78.8 °F - 64.4 °F 61% 29.85 in 10.0 mi NW 13.8 mph 23.0 mph N/A   Scattered Clouds
12:45 PM 78.8 °F - 64.4 °F 61% 29.85 in 10.0 mi West 10.4 mph 17.3 mph N/A   Mostly Cloudy
1:50 PM 77.0 °F - 62.6 °F 61% 29.85 in 10.0 mi WNW 10.4 mph 18.4 mph N/A   Mostly Cloudy
2:40 PM 78.8 °F - 64.4 °F 61% 29.85 in 10.0 mi WNW 8.1 mph 20.7 mph N/A   Mostly Cloudy
3:45 PM 80.6 °F 81.5 °F 60.8 °F 51% 29.85 in 10.0 mi NW 11.5 mph 18.4 mph N/A   Overcast
4:45 PM 80.6 °F 82.3 °F 64.4 °F 58% 29.85 in 10.0 mi WNW 10.4 mph 16.1 mph N/A   Overcast
5:50 PM 78.8 °F - 62.6 °F 57% 29.85 in 10.0 mi WNW 15.0 mph 20.7 mph N/A   Scattered Clouds
6:45 PM 77.0 °F - 60.8 °F 57% 29.86 in 10.0 mi WNW 10.4 mph 17.3 mph N/A   Clear
7:45 PM 73.4 °F - 59.0 °F 61% 29.87 in 10.0 mi WNW 11.5 mph - N/A   Clear
8:55 PM 69.8 °F - 57.2 °F 64% 29.92 in 10.0 mi WNW 6.9 mph - N/A   Clear